AirNav  
 
 1672 users online  

KPAO Palo Alto Airport
Palo Alto, California, USA

GOING TO PALO ALTO?


FAA INFORMATION EFFECTIVE 25 FEBRUARY 2021

Location

FAA Identifier: PAO
Lat/Long: 37-27-40.0000N 122-06-54.2000W
37-27.666667N 122-06.903333W
37.4611111,-122.1150556
(estimated)
Elevation: 6.8 ft. / 2.1 m (surveyed)
Variation: 15E (1995)
Time zone: UTC -8 (UTC -7 during Daylight Saving Time)
Zip code: 94303

Airport Operations

Airport use: Open to the public
Activation date: 04/1940
Control tower: yes
ARTCC: OAKLAND CENTER
FSS: OAKLAND FLIGHT SERVICE STATION
NOTAMs facility: PAO (NOTAM-D service available)
Attendance: 0600-2000
Wind indicator: lighted
Segmented circle: yes
Lights: ARPT LGTS OPERATE CONTINUOUSLY WHEN ATCT CLSD.
Beacon: white-green (lighted land airport)
Operates sunset to sunrise.

Airport Communications

CTAF: 118.6
UNICOM: 122.95
ATIS: 135.275
PALO ALTO GROUND: 125.0 [0700-2100]
PALO ALTO TOWER: 118.6 [0700-2100]
NORCAL APPROACH: 121.3 133.95 134.5
NORCAL DEPARTURE: 121.3
WX AWOS-3PT at NUQ (4 nm SE): 124.175 (650-386-0655)
WX AWOS-3P at SQL (7 nm NW): 125.9 (650-593-0613)
WX ASOS at SJC (11 nm SE): 126.95 (408-969-0838)
WX ASOS at HWD (12 nm N): PHONE 510-786-3052
WX ASOS at SFO (16 nm NW): PHONE 650-827-8593
WX ASOS at OAK (16 nm N): PHONE 510-214-1776
WX AWOS-3 at HAF (19 nm W): 127.275 (650-728-5649)
WX ASOS at LVK (20 nm NE): PHONE 925-606-5412
  • FREQ 121.5 NOT AVAILABLE.

Nearby radio navigation aids

VOR radial/distance  VOR name  Freq  Var
OSIr046/8.9WOODSIDE VOR/DME113.9017E
SJCr287/9.6SAN JOSE VOR/DME114.1016E
SFOr111/15.6SAN FRANCISCO VOR/DME115.8017E
OAKr145/16.7OAKLAND VOR/DME116.8017E
SAUr124/30.6SAUSALITO VOR/DME116.2017E
CCRr168/35.2CONCORD VOR/DME117.0017E

Airport Services

Fuel available: 100LL JET-A
SELF-FUELING AVAILBLE 24/7.
Parking: tiedowns
Airframe service: MAJOR
Powerplant service: MAJOR
Bottled oxygen: LOW

Runway Information

Runway 13/31

Dimensions: 2443 x 70 ft. / 745 x 21 m
Surface: asphalt, in good condition
Weight bearing capacity: 
Single wheel: 12.5
Runway edge lights: medium intensity
RUNWAY 13  RUNWAY 31
Latitude: 37-27.825110N37-27.509270N
Longitude: 122-07.059140W122-06.746155W
Elevation: 6.7 ft.6.8 ft.
Traffic pattern: leftright
Runway heading: 127 magnetic, 142 true307 magnetic, 322 true
Markings: basic, in good conditionnonprecision, in good condition
Visual slope indicator: 2-light PAPI on left (4.00 degrees glide path)2-light PAPI on left (4.00 degrees glide path)
Runway end identifier lights: yesyes
Touchdown point: yes, no lightsyes, no lights
Obstructions: 8 ft. berm, lighted, 300 ft. from runway, 12:1 slope to clear
RY 13 +8 FT DIKE 300 FT FROM RY END, OBSTN LGTD.
5 ft. berm, lighted, 230 ft. from runway, 6:1 slope to clear
RY 31 +5 FT DIKE 230 FT FROM RY END, OBSTN LGTD.

Airport Ownership and Management from official FAA records

Ownership: Publicly-owned
Owner: CITY OF PALO ALTO
250 HAMILTON AVENUE
PALO ALTO, CA 94301-2531
Phone (650) 329-2444
Manager: ANDREW SWANSON
250 HAMILTON AVENUE
PALO ALTO, CA 94301-2531
Phone (650) 329-2444

Airport Operational Statistics

Aircraft based on the field: 77
Single engine airplanes: 70
Multi engine airplanes: 6
Gliders airplanes: 1
    
Aircraft operations: avg 525/day *
60% local general aviation
40% transient general aviation
<1% air taxi
* for 12-month period ending 31 July 2019

Additional Remarks

+100 FT TRANSMISSION TWRS E OF ARPT.
ARPT RSTRD BY ARPT OPR TO ACFT WITH MAX CERTD WT OF 12500 LBS OR LESS.
FOR CD WHEN ATCT IS CLSD CTC NORCAL APCH AT 916-361-3748.
BIRDS ON AND INVOF AP.
TPA 1000 FT W & 800 FT E.
NOISE SENSITIVE AREA SE THRU NW OF ARPT. RCMD ACFT LDG AT PALO ALTO ARPT FLY AT OR ABOVE 1500 FT UNTIL XNG THE BAYSHORE FREEWAY, AND RCMD ACFT DEP RWY 31 TURN 10 DEG RIGHT AFTER TKOF TIL RCHG DUMBARTON AUTO BRIDGE.
BE ALERT FOR PEDESTRAINS XNG A DIKE ROAD 8 FT HIGH AND 300 FT FROM RWY 13 END.
CONS PEDESTRIAN/VEHICLE ACT ON ACFT TAXI LANES NOT DESIGNATED AS TWY MOV AREAS.
ARPT SCTY PRODS IN EFCT.
ON APCH TO RWY 31 BE ALERT TO POSS STG UPDRAFT FM WIND TUNNEL LCTD ON W SIDE OF MOFFETT FEDERAL AIRFIELD.

Instrument Procedures

NOTE: All procedures below are presented as PDF files. If you need a reader for these files, you should download the free Adobe Reader.

NOT FOR NAVIGATION. Please procure official charts for flight.
FAA instrument procedures published for use from 25 February 2021 at 0901Z to 25 March 2021 at 0900Z.

 
STARs - Standard Terminal Arrivals
POINT REYES THREE   download (260KB)
POINT REYES THREE   download (260KB)
 
IAPs - Instrument Approach Procedures
RNAV (GPS) RWY 31   download (239KB)
NOTE: Special Alternate Minimums apply   download (135KB)
NOTE: Special Take-Off Minimums/Departure Procedures apply   download (180KB)

Other nearby airports with instrument procedures:

KNUQ - Moffett Federal Airfield (4 nm SE)
KSQL - San Carlos Airport (7 nm NW)
KSJC - Norman Y Mineta San Jose International Airport (11 nm SE)
KHWD - HaywardExecutive Airport (12 nm N)
KSFO - San Francisco International Airport (16 nm NW)
KRHV - Reid-Hillview Airport of Santa Clara County (16 nm SE)
KOAK - Metro Oakland International Airport (16 nm N)
KHAF - Half Moon Bay Airport (19 nm W)
KLVK - Livermore Municipal Airport (20 nm NE)
 
Loc | Ops | Rwys | IFR | FBO | Links
Com | Nav | Svcs | Stats | Notes
Area around KPAO (Palo Alto Airport)
 
Road maps at: MapQuest Bing Google
 
Aerial photo
WARNING: Photo may not be current or correct
Aerial photo of KPAO (Palo Alto Airport)
Photo taken 11-Jan-2015
looking south-southwest.

Do you have a better or more recent aerial photo of Palo Alto Airport that you would like to share? If so, please send us your photo.

 
Sectional chart

 
Airport diagram
Diagram of KPAO (Palo Alto Airport)
Download PDF
of official airport diagram from the FAA

 
Airport distance calculator
Flying to Palo Alto Airport? Find the distance to fly.

From to KPAO

Sunrise and sunset
Times for 02-Mar-2021
 Local
(UTC-8)
 Zulu
(UTC)
Morning civil twilight06:1314:13
Sunrise06:3914:39
Sunset18:0202:02
Evening civil twilight18:2802:28

Current date and time
Zulu (UTC)  02-Mar-2021 17:35:30
Local (UTC-8)  02-Mar-2021 09:35:30
 
METAR
KPAO 021647Z VRB03KT 10SM SCT200 10/02 A3000
KNUQ 
5nm SE 
021650Z AUTO 00000KT 10SM CLR 10/01 A2999 RMK AO2
KSQL 
7nm NW 
021654Z 00000KT 10SM SCT200 11/04 A3000
KSJC 
11nm SE 
021653Z 12003KT 10SM FEW090 SCT110 BKN150 10/M02 A2999 RMK AO2 SLP154 T01001017
KHWD 
12nm N 
021654Z 16004KT 10SM CLR 11/M01 A2998 RMK AO2 SLP163 T01061006
KOAK 
15nm N 
021653Z 16006KT 10SM FEW180 BKN250 13/03 A3000 RMK AO2 SLP158 T01330033
KSFO 
15nm NW 
021656Z 00000KT 10SM BKN200 13/05 A2998 RMK AO2 SLP153 T01280050
KRHV 
17nm SE 
021652Z 00000KT 10SM BKN120 11/01 A3000
KHAF 
19nm W 
021655Z AUTO 31005KT 8SM CLR 12/03 A2999 RMK AO2
TAF
NOTAMs
Click for the latest NOTAMs
NOTAMs are issued by the DoD/FAA and will open in a separate window not controlled by AirNav.

 

 
 

FBO, Fuel Providers, and Aircraft Ground Support

  
 Business Name 
 
 Contact 
 
 Services / Description 
 
Fuel Prices
 
Comments
  
Rossi Aircraft 650-493-3326
650-493-1673
[web site]
[email]
Aviation fuel, Aircraft ground handling, Oxygen service, Aircraft maintenance

More info about Rossi Aircraft
Shell
100LL Jet A
FS $4.85 $3.85 
SS $4.45 --- 
GUARANTEED
 
   1 read write
West Valley Flying Club 650-856-2030
650-856-7640
[web site]
Aviation fuel, Flight training, Aircraft rental, Aircraft maintenance, Flying club, Pilots lounge / snooze room, Computerized weather, Internet access, Restrooms

More info about West Valley Flying Club
Phillips 66
100LL
FS $4.99 
 Updated 26-Feb-2021
 
   write
FS=Full service
SS=Self service
Update Fuel Prices
 

Would you like to see your business listed on this page?

 If your business provides an interesting product or service to pilots, flight crews, aircraft, or users of the Palo Alto Airport, you should consider listing it here.  To start the listing process, click on the button below
 
Add a business
 

Other Pages about Palo Alto Airport

www.flystanford.com/kpao.htm
 
Update a link
 
Copyright © AirNav, LLC. All rights reserved. Privacy Policy  Contact